DCMPY EDDN-EDDC

Flight info

Callsign DCMPY
Flight time N/A
Altitude 27000
Route ERETO1C ERETO Z715 ABKIS Q240 DRN
Aircraft LJ35/M-SGHRWXY/SB1

Departure

Time 2026-04-28 14:38
Airport Nuremberg Airport (EDDN)

Arrival

Time N/A
Airport Dresden Airport (EDDC)
Time Latitude Longitude Altitude Speed Heading
2026-04-28 14:20 49.49628 11.07139 1020 ft 0 kts
2026-04-28 14:34 49.49663 11.07155 1020 ft 6 kts 48°
2026-04-28 14:34 49.49683 11.07226 1021 ft 10 kts 22°
2026-04-28 14:34 49.49686 11.07227 1021 ft 0 kts 20°
2026-04-28 14:35 49.49704 11.07236 1021 ft 7 kts 16°
2026-04-28 14:35 49.49742 11.07162 1019 ft 10 kts 278°
2026-04-28 14:35 49.49744 11.07131 1018 ft 5 kts 278°
2026-04-28 14:36 49.49747 11.07106 1018 ft 6 kts 278°
2026-04-28 14:36 49.49782 11.07072 1016 ft 13 kts 340°
2026-04-28 14:36 49.49837 11.07039 1015 ft 0 kts 338°
2026-04-28 14:36 49.49839 11.07038 1015 ft 0 kts 338°
2026-04-28 14:37 49.49841 11.07036 1015 ft 3 kts 338°
2026-04-28 14:37 49.49890 11.07013 1015 ft 10 kts 359°
2026-04-28 14:37 49.49948 11.07064 1017 ft 7 kts 94°
2026-04-28 14:37 49.49906 11.07460 1025 ft 104 kts 99°
2026-04-28 14:38 49.49689 11.09071 1302 ft 172 kts 102°
2026-04-28 14:38 49.49462 11.10910 1767 ft 176 kts 91°
2026-04-28 14:38 49.49373 11.12819 2219 ft 181 kts 94°
2026-04-28 14:38 49.49195 11.14785 2658 ft 188 kts 97°
2026-04-28 14:39 49.49097 11.16797 3102 ft 191 kts 84°
2026-04-28 14:39 49.49389 11.18780 3534 ft 194 kts 70°
2026-04-28 14:39 49.50067 11.20613 3959 ft 204 kts 52°
2026-04-28 14:39 49.51202 11.22246 4421 ft 244 kts 39°
2026-04-28 14:40 49.52533 11.23798 5334 ft 240 kts 39°
2026-04-28 14:40 49.53410 11.24847 5802 ft 241 kts 40°
2026-04-28 14:40 49.55196 11.27001 6799 ft 246 kts 40°
2026-04-28 14:40 49.56560 11.28632 7457 ft 250 kts 39°
2026-04-28 14:41 49.57972 11.30234 8168 ft 251 kts 37°
2026-04-28 14:41 49.59404 11.31853 8728 ft 260 kts 37°
2026-04-28 14:41 49.60850 11.33520 9306 ft 265 kts 37°
2026-04-28 14:41 49.62337 11.35240 9927 ft 269 kts 36°
2026-04-28 14:42 49.63851 11.36985 10466 ft 273 kts 36°
2026-04-28 14:42 49.65383 11.38748 11041 ft 276 kts 36°
2026-04-28 14:42 49.66926 11.40532 11638 ft 278 kts 35°
2026-04-28 14:42 49.68476 11.42322 12291 ft 276 kts 34°
2026-04-28 14:43 49.70056 11.44144 12440 ft 305 kts 34°
2026-04-28 14:43 49.71912 11.46284 13281 ft 347 kts 34°
2026-04-28 14:43 49.73844 11.48539 15708 ft 347 kts 34°
2026-04-28 14:43 49.75778 11.50786 17237 ft 355 kts 34°
2026-04-28 14:44 49.77811 11.53131 18468 ft 369 kts 34°
2026-04-28 14:44 49.79962 11.55615 19136 ft 407 kts 34°
2026-04-28 14:44 49.82123 11.58145 19162 ft 385 kts 34°
2026-04-28 14:44 49.84260 11.60648 20922 ft 381 kts 33°
2026-04-28 14:45 49.86418 11.63157 22548 ft 395 kts 33°
2026-04-28 14:45 49.88655 11.65753 23985 ft 407 kts 33°
2026-04-28 14:45 49.90944 11.68430 25197 ft 416 kts 33°
2026-04-28 14:45 49.93252 11.71141 26346 ft 425 kts 33°
2026-04-28 14:46 49.95649 11.73948 27151 ft 442 kts 33°
2026-04-28 14:46 49.98194 11.76918 27179 ft 471 kts 33°
2026-04-28 14:46 50.00880 11.80072 27195 ft 489 kts 34°
2026-04-28 14:46 50.03552 11.83240 27199 ft 483 kts 34°
2026-04-28 14:47 50.06213 11.86388 27200 ft 477 kts 33°
2026-04-28 14:47 50.08855 11.89491 27208 ft 474 kts 33°
2026-04-28 14:47 50.11491 11.92591 27210 ft 473 kts 33°
2026-04-28 14:47 50.14081 11.95662 27213 ft 474 kts 34°
2026-04-28 14:48 50.16735 11.98814 27219 ft 482 kts 33°
2026-04-28 14:48 50.19377 12.01952 27212 ft 472 kts 33°
2026-04-28 14:48 50.21982 12.05047 27213 ft 465 kts 33°
2026-04-28 14:48 50.24549 12.08098 27216 ft 462 kts 33°
2026-04-28 14:49 50.27106 12.11140 27212 ft 461 kts 33°
2026-04-28 14:49 50.29652 12.14179 27210 ft 459 kts 33°
2026-04-28 14:49 50.32168 12.17258 27204 ft 460 kts 37°
2026-04-28 14:49 50.34373 12.20837 27203 ft 464 kts 47°
2026-04-28 14:50 50.36195 12.25020 27198 ft 467 kts 57°
2026-04-28 14:50 50.37716 12.29529 27200 ft 467 kts 59°
2026-04-28 14:50 50.39222 12.34046 27200 ft 467 kts 59°
2026-04-28 14:50 50.40735 12.38543 27212 ft 466 kts 59°
2026-04-28 14:51 50.42254 12.43051 27216 ft 466 kts 59°
2026-04-28 14:51 50.43761 12.47561 27215 ft 466 kts 59°
2026-04-28 14:51 50.45257 12.52058 27108 ft 461 kts 59°
2026-04-28 14:51 50.46739 12.56510 26326 ft 459 kts 59°
2026-04-28 14:52 50.47723 12.59455 25832 ft 457 kts 59°